This demonstration page uses our WeatherBlox Daily Observations layout. Learn more.

Left ArrowRight Arrow

44.31136, -96.79839

Hourly Observations for July 7, 2015

Temp ( °F °C ) Dew Point ( °F °C ) Humidity (%) Winds ( mph kmh ) Pressure ( in mb ) Visibility ( mi km ) Precip ( " mm )
12:15 am 00:15 Clear 54 12 48 9 82 82 N 5 7 30.15 1021 10 16 0.00 0.00
12:35 am 00:35 Clear 54 12 48 9 82 82 N 6 9 30.15 1021 10 16 0.00 0.00
12:55 am 00:55 Clear 54 12 48 9 82 82 N 6 9 30.15 1021 10 16 0.00 0.00
1:15 am 01:15 Clear 54 12 48 9 82 82 N 6 9 30.15 1021 10 16 0.00 0.00
1:35 am 01:35 Clear 54 12 48 9 82 82 N 6 9 30.18 1022 10 16 0.00 0.00
1:55 am 01:55 Clear 54 12 48 9 82 82 N 6 9 30.18 1022 10 16 0.00 0.00
2:15 am 02:15 Clear 52 11 48 9 88 88 N 6 9 30.21 1023 10 16 0.00 0.00
2:35 am 02:35 Clear 52 11 46 8 82 82 N 5 7 30.21 1023 10 16 0.00 0.00
2:55 am 02:55 Clear 52 11 46 8 82 82 N 7 11 30.21 1023 10 16 0.00 0.00
3:15 am 03:15 Clear 52 11 46 8 82 82 N 7 11 30.21 1023 10 16 0.00 0.00
3:35 am 03:35 Clear 50 10 46 8 88 88 N 7 11 30.21 1023 10 16 0.00 0.00
3:55 am 03:55 Clear 50 10 45 7 82 82 N 6 9 30.21 1023 10 16 0.00 0.00
4:15 am 04:15 Clear 50 10 45 7 82 82 N 6 9 30.21 1023 10 16 0.00 0.00
4:35 am 04:35 Clear 52 11 45 7 77 77 N 7 11 30.21 1023 10 16 0.00 0.00
4:55 am 04:55 Clear 50 10 45 7 82 82 N 5 7 30.21 1023 10 16 0.00 0.00
5:15 am 05:15 Clear 48 9 43 6 82 82 N 6 9 30.21 1023 10 16 0.00 0.00
5:35 am 05:35 Clear 48 9 43 6 82 82 N 6 9 30.21 1023 10 16 0.00 0.00
5:55 am 05:55 Sunny 48 9 43 6 82 82 Calm 30.24 1024 10 16 0.00 0.00
6:15 am 06:15 Sunny 48 9 43 6 82 82 NNE 5 7 30.24 1024 10 16 0.00 0.00
6:35 am 06:35 Sunny 48 9 43 6 82 82 NNE 5 7 30.24 1024 10 16 0.00 0.00
6:55 am 06:55 Sunny 50 10 45 7 82 82 N 5 7 30.24 1024 10 16 0.00 0.00
7:15 am 07:15 Sunny 50 10 45 7 82 82 NNE 7 11 30.24 1024 10 16 0.00 0.00
7:35 am 07:35 Sunny 52 11 45 7 77 77 NNE 8 13 30.24 1024 10 16 0.00 0.00
7:55 am 07:55 Sunny 54 12 45 7 72 72 NNE 7 11 30.21 1023 10 16 0.00 0.00
8:15 am 08:15 Sunny 54 12 46 8 77 77 NE 6 9 30.21 1023 10 16 0.00 0.00
8:35 am 08:35 Sunny 55 13 46 8 72 72 NE 6 9 30.21 1023 10 16 0.00 0.00
8:55 am 08:55 Sunny 55 13 46 8 72 72 NE 6 9 30.21 1023 10 16 0.00 0.00
9:15 am 09:15 Sunny 55 13 45 7 67 67 NE 7 11 30.21 1023 10 16 0.00 0.00
9:35 am 09:35 Sunny 57 14 45 7 63 63 NE 8 13 30.21 1023 10 16 0.00 0.00
9:55 am 09:55 Mostly Sunny 57 14 45 7 63 63 E 8 13 30.21 1023 10 16 0.00 0.00
10:15 am 10:15 Sunny 59 15 45 7 59 59 ESE 10 17 30.21 1023 10 16 0.00 0.00
10:35 am 10:35 Sunny 59 15 43 6 55 55 NE 8 13 30.21 1023 10 16 0.00 0.00
10:55 am 10:55 Sunny 59 15 45 7 59 59 NNE 10 17 30.21 1023 10 16 0.00 0.00
11:15 am 11:15 Sunny 61 16 43 6 52 52 NE 9 15 30.21 1023 10 16 0.00 0.00
11:35 am 11:35 Sunny 61 16 43 6 52 52 E 9 15 30.21 1023 10 16 0.00 0.00
11:55 am 11:55 Sunny 61 16 45 7 55 55 ESE 6 9 30.21 1023 10 16 0.00 0.00
12:15 pm 12:15 Sunny 61 16 45 7 55 55 ESE 5 7 30.21 1023 10 16 0.00 0.00
12:35 pm 12:35 Sunny 61 16 45 7 55 55 NE 7 11 30.21 1023 10 16 0.00 0.00
12:55 pm 12:55 Mostly Sunny 63 17 45 7 52 52 ESE 8 13 30.18 1022 10 16 0.00 0.00
1:15 pm 13:15 Sunny 63 17 45 7 52 52 ESE 12 19 30.18 1022 10 16 0.00 0.00
1:35 pm 13:35 Mostly Sunny 64 18 46 8 52 52 SE 8 13 30.18 1022 10 16 0.00 0.00
1:55 pm 13:55 Mostly Sunny 63 17 45 7 52 52 ENE 6 9 30.18 1022 10 16 0.00 0.00
2:15 pm 14:15 Sunny 64 18 46 8 52 52 SE 7 11 30.15 1021 10 16 0.00 0.00
2:35 pm 14:35 Sunny 64 18 46 8 52 52 SE 9 15 30.15 1021 10 16 0.00 0.00
2:55 pm 14:55 Sunny 64 18 46 8 52 52 S 12 19 30.15 1021 10 16 0.00 0.00
3:15 pm 15:15 Sunny 64 18 45 7 49 49 SE 6 9 30.15 1021 10 16 0.00 0.00
3:35 pm 15:35 Sunny 66 19 46 8 49 49 SSE 6 9 30.15 1021 10 16 0.00 0.00
3:55 pm 15:55 Sunny 66 19 46 8 49 49 SSE 7 11 30.15 1021 10 16 0.00 0.00
4:15 pm 16:15 Sunny 66 19 46 8 49 49 SSE 6 9 30.15 1021 10 16 0.00 0.00
4:55 pm 16:55 Sunny 66 19 46 8 49 49 S 5 7 30.12 1020 10 16 0.00 0.00
5:15 pm 17:15 Sunny 66 19 46 8 49 49 SSW 5 7 30.12 1020 10 16 0.00 0.00
5:35 pm 17:35 Sunny 66 19 48 9 52 52 SSE 3 6 30.12 1020 10 16 0.00 0.00
5:55 pm 17:55 Sunny 66 19 46 8 49 49 S 3 6 30.12 1020 10 16 0.00 0.00
6:15 pm 18:15 Sunny 66 19 48 9 52 52 S 8 13 30.12 1020 10 16 0.00 0.00
6:35 pm 18:35 Sunny 66 19 48 9 52 52 SE 7 11 30.12 1020 10 16 0.00 0.00
6:55 pm 18:55 Sunny 66 19 46 8 49 49 S 6 9 30.09 1019 10 16 0.00 0.00
7:15 pm 19:15 Sunny 66 19 46 8 49 49 E 6 9 30.09 1019 10 16 0.00 0.00
7:35 pm 19:35 Sunny 64 18 46 8 52 52 SE 6 9 30.09 1019 10 16 0.00 0.00
7:55 pm 19:55 Sunny 66 19 46 8 49 49 E 5 7 30.09 1019 10 16 0.00 0.00
8:15 pm 20:15 Sunny 64 18 46 8 52 52 ESE 6 9 30.09 1019 10 16 0.00 0.00
8:35 pm 20:35 Sunny 64 18 46 8 52 52 ESE 8 13 30.09 1019 10 16 0.00 0.00
8:55 pm 20:55 Sunny 63 17 46 8 56 56 ESE 7 11 30.09 1019 10 16 0.00 0.00
9:15 pm 21:15 Clear 63 17 48 9 59 59 ESE 7 11 30.09 1019 10 16 0.00 0.00
9:35 pm 21:35 Clear 61 16 48 9 63 63 SE 7 11 30.09 1019 10 16 0.00 0.00
9:55 pm 21:55 Clear 61 16 50 10 68 68 SE 7 11 30.09 1019 10 16 0.00 0.00
10:15 pm 22:15 Clear 61 16 48 9 63 63 SE 7 11 30.09 1019 10 16 0.00 0.00
10:35 pm 22:35 Clear 59 15 50 10 72 72 SE 7 11 30.12 1020 10 16 0.00 0.00
10:55 pm 22:55 Clear 57 14 50 10 77 77 SE 8 13 30.12 1020 10 16 0.00 0.00
11:15 pm 23:15 Clear 57 14 48 9 72 72 SE 7 11 30.12 1020 10 16 0.00 0.00
11:35 pm 23:35 Clear 57 14 48 9 72 72 SE 8 13 30.12 1020 10 16 0.00 0.00
11:55 pm 23:55 Clear 55 13 48 9 77 77 SE 7 11 30.15 1021 10 16 0.00 0.00

Powered by AerisWeather